Terug naar catalogus

YUNYAO-1 37

ActiefWeerSSO
NORAD 62729·PAYLOAD·🇨🇳 China
Deze satellietnaam is nog niet bevestigd door officiële bronnen.

Gelanceerd Jan 20, 2025 vanaf Jiuquan Satellite Launch Center

Loading…

Volgende Passages (komende 24 uur)

TLE

VersSource: Space-Track

Epoch: Sep 14, 2026, 23:24 UTC

1 62729U 25013A   26257.97568354  .00037021  00000-0  92163-3 0  9993
2 62729  97.6396  80.2189 0007604 337.3382  22.7527 15.40140935 91751

Volg YUNYAO-1 37 in realtime met AllMySat

Download on the App Store